sat.trackr.live / text

‹ back to catalog

YAOGAN-30 08B

NORAD 46808 · 2020-076B

PAYLOAD ACTIVE UNKNOWN

§ Identity

Operator
Country
PRC
Launch date
2020-10-26
Launch site
XICLF
Launch vehicle
Mass (kg)
RCS (m²)

External: N2YO · Heavens-Above · Gunter

§ Orbital elements

Epoch: 2026-09-20T05:19:47.064000Z

Period
95.81 min
Inclination
34.9938°
Eccentricity
0.0000417
Mean motion
15.03032453 rev/d
Perigee alt
557.3 km
Apogee alt
557.8 km
Semi-major
6,935.7 km
B*
1.3465e-4
RAAN
231.5864°
Arg perigee
156.8456°
Mean anomaly
203.2271°
Rev number
32,253

§ Raw data

YAOGAN-30 08B1 46808U 20076B   26263.22207250  .00001821  00000+0  13465-3 0  99932 46808  34.9938 231.5864 0000417 156.8456 203.2271 15.03032453322538

JSON: /api/v1/satellites/46808 · /tle

For live sub-satellite position, see the globe view (requires WebGL).

§ Visibility from observer

Set your observer location to see the next 7 days of passes ≥ 10°. The values pass through the URL so the page stays shareable.

No JS? Fill the form by hand. The geolocation button needs JavaScript.